Location: Peebles
(55.6412°N, 3.1714°W)
Time: 14:10:24
(UTC+01:00)

FENGYUN 1C DEB - Pass Details

Date: 05 July 2022
Orbit: 774 x 850 km, 99.1° (Epoch: 16 August)

Event Time Altitude Azimuth Distance (km) Brightness Sun altitude
Rises 03:28:36 0° 89° (E) 3,338 ? -6.7°
Reaches altitude 10° 03:32:27 10° 60° (ENE) 2,429 ? -6.5°
Maximum altitude 03:34:29 12° 38° (NE) 2,285 ? -6.3°
Drops below altitude 10° 03:36:31 10° 15° (NNE) 2,451 ? -6.2°
Sets 03:40:26 0° 347° (NNW) 3,406 ? -5.9°
